ProjectID,Date,Electric Generation,Electric Utility Import,Facility Electric Load
,YYYY-MM-DD,kW,kW,kW
539,2017-06-21,79.29583333333333,,79.29583333333333
539,2017-06-22,190.5333333333333,,190.5333333333333
539,2017-06-23,190.29583333333332,,190.29583333333332
539,2017-06-24,190.47916666666666,,190.47916666666666
539,2017-06-25,190.48749999999998,,190.48749999999998
539,2017-06-26,190.7458333333333,,190.7458333333333
539,2017-06-27,190.975,,190.975
539,2017-06-28,190.9625,,190.9625
539,2017-06-29,190.60833333333335,,190.60833333333335
539,2017-06-30,190.21249999999998,,190.21249999999998
539,2017-07-01,190.2416666666667,,190.2416666666667
539,2017-07-02,190.06250000000003,,190.06250000000003
539,2017-07-03,189.8958333333333,,189.8958333333333
539,2017-07-04,190.3041666666667,,190.3041666666667
539,2017-07-05,190.4,,190.4
539,2017-07-06,190.50000000000003,,190.50000000000003
539,2017-07-07,190.3541666666667,,190.3541666666667
539,2017-07-08,190.01666666666668,,190.01666666666668
539,2017-07-09,190.25833333333333,,190.25833333333333
539,2017-07-10,190.275,,190.275
539,2017-07-11,189.9416666666666,,189.9416666666666
539,2017-07-12,189.76250000000002,,189.76250000000002
539,2017-07-13,189.64166666666665,,189.64166666666665
539,2017-07-14,190.42499999999998,,190.42499999999998
539,2017-07-15,189.98333333333332,,189.98333333333332
539,2017-07-16,189.87083333333337,,189.87083333333337
539,2017-07-17,189.84166666666667,,189.84166666666667
539,2017-07-18,189.63749999999996,,189.63749999999996
539,2017-07-19,189.35833333333335,,189.35833333333335
539,2017-07-20,189.2708333333333,,189.2708333333333
539,2017-07-21,189.32916666666674,,189.32916666666674
539,2017-07-22,189.31250000000009,,189.31250000000009
539,2017-07-23,189.66666666666666,,189.66666666666666
539,2017-07-24,190.05416666666665,,190.05416666666665
539,2017-07-25,190.14166666666668,,190.14166666666668
539,2017-07-26,190.025,,190.025
539,2017-07-27,189.9375,,189.9375
539,2017-07-28,189.56666666666663,,189.56666666666663
539,2017-07-29,189.76666666666665,,189.76666666666665
539,2017-07-30,189.81666666666663,,189.81666666666663
539,2017-07-31,176.04999999999998,,176.04999999999998
539,2017-08-01,189.16666666666666,,189.16666666666666
539,2017-08-02,189.07916666666665,,189.07916666666665
539,2017-08-03,187.9333333333333,,187.9333333333333
539,2017-08-04,187.73750000000004,,187.73750000000004
539,2017-08-05,187.87083333333328,,187.87083333333328
539,2017-08-06,188.225,,188.225
539,2017-08-07,188.40000000000006,,188.40000000000006
539,2017-08-08,188.10833333333335,,188.10833333333335
539,2017-08-09,188.0291666666667,,188.0291666666667
539,2017-08-10,187.95833333333337,,187.95833333333337
539,2017-08-11,187.95416666666665,,187.95416666666665
539,2017-08-12,187.94166666666663,,187.94166666666663
539,2017-08-13,187.6916666666667,,187.6916666666667
539,2017-08-14,187.72500000000002,,187.72500000000002
539,2017-08-15,187.875,,187.875
539,2017-08-16,187.4958333333333,,187.4958333333333
539,2017-08-17,187.59583333333333,,187.59583333333333
539,2017-08-18,187.42499999999998,,187.42499999999998
539,2017-08-19,187.20416666666662,,187.20416666666662
539,2017-08-20,187.46666666666667,,187.46666666666667
539,2017-08-21,187.475,,187.475
539,2017-08-22,181.65833333333333,,181.65833333333333
539,2017-08-23,188.17500000000004,,188.17500000000004
539,2017-08-24,188.63750000000002,,188.63750000000002
539,2017-08-25,188.7791666666667,,188.7791666666667
539,2017-08-26,188.87916666666672,,188.87916666666672
539,2017-08-27,188.84166666666667,,188.84166666666667
539,2017-08-28,188.79999999999998,,188.79999999999998
539,2017-08-29,188.9958333333333,,188.9958333333333
539,2017-08-30,188.72916666666663,,188.72916666666663
539,2017-08-31,188.49999999999997,,188.49999999999997
539,2017-09-01,188.88750000000002,,188.88750000000002
539,2017-09-02,189.07083333333335,,189.07083333333335
539,2017-09-03,188.67916666666667,,188.67916666666667
539,2017-09-04,188.275,,188.275
539,2017-09-05,187.97916666666666,,187.97916666666666
539,2017-09-06,188.52499999999998,,188.52499999999998
539,2017-09-07,188.5583333333333,,188.5583333333333
539,2017-09-08,188.82083333333333,,188.82083333333333
539,2017-09-09,189.4,,189.4
539,2017-09-10,189.28333333333333,,189.28333333333333
539,2017-09-11,189.20416666666668,,189.20416666666668
539,2017-09-12,189.02083333333334,,189.02083333333334
539,2017-09-13,188.85416666666663,,188.85416666666663
539,2017-09-14,188.5333333333334,,188.5333333333334
539,2017-09-15,188.64999999999998,,188.64999999999998
539,2017-09-16,188.64999999999998,,188.64999999999998
539,2017-09-17,188.5291666666666,,188.5291666666666
539,2017-09-18,188.59166666666667,,188.59166666666667
539,2017-09-19,188.50833333333333,,188.50833333333333
539,2017-09-20,188.39583333333334,,188.39583333333334
539,2017-09-21,188.36666666666665,,188.36666666666665
539,2017-09-22,188.34999999999994,,188.34999999999994
539,2017-09-23,188.26666666666665,,188.26666666666665
539,2017-09-24,188.04999999999998,,188.04999999999998
539,2017-09-25,188.10000000000002,,188.10000000000002
539,2017-09-26,188.24166666666667,,188.24166666666667
539,2017-09-27,187.93749999999997,,187.93749999999997
539,2017-09-28,188.0958333333334,,188.0958333333334
539,2017-09-29,188.775,,188.775
539,2017-09-30,188.87916666666672,,188.87916666666672
539,2017-10-01,188.7708333333333,,188.7708333333333
539,2017-10-02,188.58749999999998,,188.58749999999998
539,2017-10-03,188.8458333333333,,188.8458333333333
539,2017-10-04,188.57916666666665,,188.57916666666665
539,2017-10-05,188.14583333333334,,188.14583333333334
539,2017-10-06,188.00833333333333,,188.00833333333333
539,2017-10-07,187.97916666666666,,187.97916666666666
539,2017-10-08,187.70416666666668,,187.70416666666668
539,2017-10-09,187.63333333333333,,187.63333333333333
539,2017-10-10,187.7166666666667,,187.7166666666667
539,2017-10-11,188.01249999999996,,188.01249999999996
539,2017-10-12,188.43333333333337,,188.43333333333337
539,2017-10-13,187.7166666666667,,187.7166666666667
539,2017-10-14,149.25000000000003,,149.25000000000003
539,2017-10-15,186.9708333333334,,186.9708333333334
539,2017-10-16,188.23749999999998,,188.23749999999998
539,2017-10-17,188.60833333333332,,188.60833333333332
539,2017-10-18,188.4125,,188.4125
539,2017-10-19,188.3166666666667,,188.3166666666667
539,2017-10-20,188.24166666666667,,188.24166666666667
539,2017-10-21,188.19583333333333,,188.19583333333333
539,2017-10-22,188.02916666666667,,188.02916666666667
539,2017-10-23,187.1166666666666,,187.1166666666666
539,2017-10-24,187.54583333333335,,187.54583333333335
539,2017-10-25,186.06666666666663,,186.06666666666663
539,2017-10-26,188.04999999999995,,188.04999999999995
539,2017-10-27,188.1666666666667,,188.1666666666667
539,2017-10-28,187.9083333333333,,187.9083333333333
539,2017-10-29,187.625,,187.625
539,2017-10-30,187.68333333333337,,187.68333333333337
539,2017-10-31,188.02916666666667,,188.02916666666667
539,2017-11-01,188.31250000000003,,188.31250000000003
539,2017-11-02,187.8375,,187.8375
539,2017-11-03,187.63749999999996,,187.63749999999996
539,2017-11-04,187.99166666666667,,187.99166666666667
539,2017-11-05,176.10833333333335,,176.10833333333335
539,2017-11-06,187.57916666666665,,187.57916666666665
539,2017-11-07,188.03333333333333,,188.03333333333333
539,2017-11-08,188.0375,,188.0375
539,2017-11-09,187.89166666666674,,187.89166666666674
539,2017-11-10,188.04166666666666,,188.04166666666666
539,2017-11-11,178.55833333333337,,178.55833333333337
539,2017-11-12,188.01250000000002,,188.01250000000002
539,2017-11-13,187.86666666666667,,187.86666666666667
539,2017-11-14,187.92083333333332,,187.92083333333332
539,2017-11-15,187.7833333333333,,187.7833333333333
539,2017-11-16,187.49583333333337,,187.49583333333337
539,2017-11-17,187.5541666666667,,187.5541666666667
539,2017-11-18,187.54583333333335,,187.54583333333335
539,2017-11-19,187.23749999999995,,187.23749999999995
539,2017-11-20,187.60416666666666,,187.60416666666666
539,2017-11-21,187.475,,187.475
539,2017-11-22,187.30833333333337,,187.30833333333337
539,2017-11-23,187.19583333333333,,187.19583333333333
539,2017-11-24,187.47916666666666,,187.47916666666666
539,2017-11-25,187.34166666666667,,187.34166666666667
539,2017-11-26,186.92499999999998,,186.92499999999998
539,2017-11-27,187.22916666666666,,187.22916666666666
539,2017-11-28,187.3791666666667,,187.3791666666667
539,2017-11-29,187.05416666666667,,187.05416666666667
539,2017-11-30,187.27083333333334,,187.27083333333334
539,2017-12-01,185.48333333333326,,185.48333333333326
539,2017-12-02,187.3458333333333,,187.3458333333333
539,2017-12-03,187.14999999999995,,187.14999999999995
539,2017-12-04,187.1833333333333,,187.1833333333333
539,2017-12-05,186.87083333333328,,186.87083333333328
539,2017-12-06,187.1833333333333,,187.1833333333333
539,2017-12-07,188.67916666666667,,188.67916666666667
539,2017-12-08,188.82916666666674,,188.82916666666674
539,2017-12-09,188.86250000000004,,188.86250000000004
539,2017-12-10,188.64583333333334,,188.64583333333334
539,2017-12-11,186.71666666666667,,186.71666666666667
539,2017-12-12,188.7083333333333,,188.7083333333333
539,2017-12-13,189.32500000000002,,189.32500000000002
539,2017-12-14,189.26250000000002,,189.26250000000002
539,2017-12-15,189.50833333333335,,189.50833333333335
539,2017-12-16,189.29166666666666,,189.29166666666666
539,2017-12-17,189.04999999999998,,189.04999999999998
539,2017-12-18,188.73749999999998,,188.73749999999998
539,2017-12-19,188.5583333333333,,188.5583333333333
539,2017-12-20,188.50833333333333,,188.50833333333333
539,2017-12-21,188.9375,,188.9375
539,2017-12-22,188.78333333333333,,188.78333333333333
539,2017-12-23,188.47083333333333,,188.47083333333333
539,2017-12-24,188.39583333333334,,188.39583333333334
539,2017-12-25,188.34583333333333,,188.34583333333333
539,2017-12-26,189.11250000000004,,189.11250000000004
539,2017-12-27,189.32916666666665,,189.32916666666665
539,2017-12-28,189.5,,189.5
539,2017-12-29,189.35,,189.35
539,2017-12-30,189.17083333333326,,189.17083333333326
539,2017-12-31,189.07083333333335,,189.07083333333335
539,2018-01-01,189.2208333333333,,189.2208333333333
539,2018-01-02,189.1583333333334,,189.1583333333334
539,2018-01-03,188.92916666666667,,188.92916666666667
539,2018-01-04,188.47916666666666,,188.47916666666666
539,2018-01-05,188.86250000000004,,188.86250000000004
539,2018-01-06,189.16666666666663,,189.16666666666663
539,2018-01-07,189.01250000000002,,189.01250000000002
539,2018-01-08,188.74166666666667,,188.74166666666667
539,2018-01-09,188.33749999999995,,188.33749999999995
539,2018-01-10,188.47916666666666,,188.47916666666666
539,2018-01-11,188.03750000000002,,188.03750000000002
539,2018-01-12,187.53750000000002,,187.53750000000002
539,2018-01-13,187.84583333333333,,187.84583333333333
539,2018-01-14,188.6166666666667,,188.6166666666667
539,2018-01-15,188.5958333333334,,188.5958333333334
539,2018-01-16,188.37083333333328,,188.37083333333328
539,2018-01-17,188.26250000000002,,188.26250000000002
539,2018-01-18,188.36666666666665,,188.36666666666665
539,2018-01-19,188.16250000000005,,188.16250000000005
539,2018-01-20,187.67499999999998,,187.67499999999998
539,2018-01-21,187.4458333333333,,187.4458333333333
539,2018-01-22,164.12083333333334,,164.12083333333334
539,2018-01-23,153.46666666666667,,153.46666666666667
539,2018-01-24,176.08749999999998,,176.08749999999998
539,2018-01-25,162.1916666666667,,162.1916666666667
539,2018-01-26,187.77916666666667,,187.77916666666667
539,2018-01-27,187.2791666666666,,187.2791666666666
539,2018-01-28,186.49583333333328,,186.49583333333328
539,2018-01-29,186.73333333333326,,186.73333333333326
539,2018-01-30,187.1541666666667,,187.1541666666667
539,2018-01-31,187.59583333333333,,187.59583333333333
539,2018-02-01,187.07916666666665,,187.07916666666665
539,2018-02-02,187.36249999999998,,187.36249999999998
539,2018-02-03,187.69583333333335,,187.69583333333335
539,2018-02-04,186.95833333333334,,186.95833333333334
539,2018-02-05,186.99166666666665,,186.99166666666665
539,2018-02-06,187.25,,187.25
539,2018-02-07,187.05416666666667,,187.05416666666667
539,2018-02-08,187.10833333333332,,187.10833333333332
539,2018-02-09,187.22916666666666,,187.22916666666666
539,2018-02-10,186.71249999999998,,186.71249999999998
539,2018-02-11,186.01666666666665,,186.01666666666665
539,2018-02-12,186.29166666666666,,186.29166666666666
539,2018-02-13,187.0291666666667,,187.0291666666667
539,2018-02-14,186.57083333333333,,186.57083333333333
539,2018-02-15,186.07500000000002,,186.07500000000002
539,2018-02-16,186.02083333333334,,186.02083333333334
539,2018-02-17,186.66250000000002,,186.66250000000002
539,2018-02-18,186.39999999999998,,186.39999999999998
539,2018-02-19,186.4375,,186.4375
539,2018-02-20,185.97916666666666,,185.97916666666666
539,2018-02-21,185.47916666666663,,185.47916666666663
539,2018-02-22,186.13333333333333,,186.13333333333333
539,2018-02-23,183.2916666666667,,183.2916666666667
539,2018-02-24,179.6583333333334,,179.6583333333334
539,2018-02-25,184.16666666666666,,184.16666666666666
539,2018-02-26,184.3416666666667,,184.3416666666667
539,2018-02-27,186.11249999999998,,186.11249999999998
539,2018-02-28,185.8458333333333,,185.8458333333333
539,2018-03-01,185.5625,,185.5625
539,2018-03-02,185.87083333333337,,185.87083333333337
539,2018-03-03,185.9333333333333,,185.9333333333333
539,2018-03-04,185.75,,185.75
539,2018-03-05,185.94166666666672,,185.94166666666672
539,2018-03-06,185.89166666666665,,185.89166666666665
539,2018-03-07,185.95416666666668,,185.95416666666668
539,2018-03-08,185.9333333333333,,185.9333333333333
539,2018-03-09,185.90416666666667,,185.90416666666667
539,2018-03-10,185.9416666666667,,185.9416666666667
539,2018-03-11,183.82500000000002,,183.82500000000002
539,2018-03-12,185.64166666666668,,185.64166666666668
539,2018-03-13,185.74166666666667,,185.74166666666667
539,2018-03-14,185.72916666666666,,185.72916666666666
539,2018-03-15,185.55833333333337,,185.55833333333337
539,2018-03-16,185.67916666666665,,185.67916666666665
539,2018-03-17,185.56666666666663,,185.56666666666663
539,2018-03-18,185.5041666666667,,185.5041666666667
539,2018-03-19,185.4333333333333,,185.4333333333333
539,2018-03-20,185.61666666666665,,185.61666666666665
539,2018-03-21,185.57916666666662,,185.57916666666662
539,2018-03-22,185.35,,185.35
539,2018-03-23,185.31249999999997,,185.31249999999997
539,2018-03-24,185.32916666666662,,185.32916666666662
539,2018-03-25,185.5041666666667,,185.5041666666667
539,2018-03-26,185.65416666666667,,185.65416666666667
539,2018-03-27,185.57500000000007,,185.57500000000007
539,2018-03-28,185.14166666666674,,185.14166666666674
539,2018-03-29,184.76250000000002,,184.76250000000002
539,2018-03-30,184.47916666666666,,184.47916666666666
539,2018-03-31,184.9125,,184.9125
539,2018-04-01,184.60416666666663,,184.60416666666663
539,2018-04-02,185.0208333333333,,185.0208333333333
539,2018-04-03,185.0875,,185.0875
539,2018-04-04,184.64999999999995,,184.64999999999995
539,2018-04-05,185.01666666666674,,185.01666666666674
539,2018-04-06,184.79583333333335,,184.79583333333335
539,2018-04-07,184.54999999999998,,184.54999999999998
539,2018-04-08,184.8791666666667,,184.8791666666667
539,2018-04-09,185.0041666666666,,185.0041666666666
539,2018-04-10,184.79166666666666,,184.79166666666666
539,2018-04-11,184.74166666666667,,184.74166666666667
539,2018-04-12,184.3708333333333,,184.3708333333333
539,2018-04-13,167.47083333333333,,167.47083333333333
539,2018-04-14,183.8708333333333,,183.8708333333333
539,2018-04-15,184.73333333333332,,184.73333333333332
539,2018-04-16,184.5625,,184.5625
539,2018-04-17,184.5,,184.5
539,2018-04-18,184.57083333333335,,184.57083333333335
539,2018-04-19,184.45000000000002,,184.45000000000002
539,2018-04-20,184.6833333333333,,184.6833333333333
539,2018-04-21,184.60416666666666,,184.60416666666666
539,2018-04-22,184.40416666666667,,184.40416666666667
539,2018-04-23,184.45416666666668,,184.45416666666668
539,2018-04-24,184.3333333333333,,184.3333333333333
539,2018-04-25,183.23333333333335,,183.23333333333335
539,2018-04-26,183.81666666666663,,183.81666666666663
539,2018-04-27,184.0958333333333,,184.0958333333333
539,2018-04-28,183.85833333333335,,183.85833333333335
539,2018-04-29,183.9625,,183.9625
539,2018-04-30,184.11666666666665,,184.11666666666665
539,2018-05-01,183.54583333333335,,183.54583333333335
539,2018-05-02,182.98750000000004,,182.98750000000004
539,2018-05-03,182.6875,,182.6875
539,2018-05-04,182.6916666666667,,182.6916666666667
539,2018-05-05,165.62500000000003,,165.62500000000003
539,2018-05-06,157.76250000000002,,157.76250000000002
539,2018-05-07,171.04583333333335,,171.04583333333335
539,2018-05-08,177.375,,177.375
539,2018-05-09,176.4416666666667,,176.4416666666667
539,2018-05-10,176.08749999999998,,176.08749999999998
539,2018-05-11,176.42916666666667,,176.42916666666667
539,2018-05-12,176.89166666666668,,176.89166666666668
539,2018-05-13,177.0208333333333,,177.0208333333333
539,2018-05-14,176.66666666666666,,176.66666666666666
539,2018-05-15,175.86666666666667,,175.86666666666667
539,2018-05-16,176.4708333333333,,176.4708333333333
539,2018-05-17,176.36249999999998,,176.36249999999998
539,2018-05-18,176.38750000000005,,176.38750000000005
539,2018-05-19,176.72083333333333,,176.72083333333333
539,2018-05-20,175.66666666666666,,175.66666666666666
539,2018-05-21,175.8708333333333,,175.8708333333333
539,2018-05-22,176.29583333333335,,176.29583333333335
539,2018-05-23,175.70833333333334,,175.70833333333334
539,2018-05-24,175.48333333333338,,175.48333333333338
539,2018-05-25,175.20000000000002,,175.20000000000002
539,2018-05-26,174.84166666666667,,174.84166666666667
539,2018-05-27,175.82916666666665,,175.82916666666665
539,2018-05-28,175.87083333333328,,175.87083333333328
539,2018-05-29,175.11250000000004,,175.11250000000004
539,2018-05-30,175.6166666666667,,175.6166666666667
539,2018-05-31,175.65416666666667,,175.65416666666667
539,2018-06-01,175.0875,,175.0875
539,2018-06-02,174.5958333333333,,174.5958333333333
539,2018-06-03,175.52499999999998,,175.52499999999998
539,2018-06-04,175.625,,175.625
539,2018-06-05,175.29999999999998,,175.29999999999998
539,2018-06-06,175.54999999999998,,175.54999999999998
539,2018-06-07,175.57083333333333,,175.57083333333333
539,2018-06-08,175.03750000000002,,175.03750000000002
539,2018-06-09,174.93333333333337,,174.93333333333337
539,2018-06-10,173.5583333333333,,173.5583333333333
539,2018-06-11,172.04583333333332,,172.04583333333332
539,2018-06-12,171.79999999999998,,171.79999999999998
539,2018-06-13,171.42083333333335,,171.42083333333335
539,2018-06-14,171.02083333333334,,171.02083333333334
539,2018-06-15,171.35833333333335,,171.35833333333335
539,2018-06-16,171.23333333333335,,171.23333333333335
539,2018-06-17,170.92083333333335,,170.92083333333335
539,2018-06-18,170.57916666666668,,170.57916666666668
539,2018-06-19,170.52083333333334,,170.52083333333334
539,2018-06-20,171.125,,171.125
539,2018-06-21,171.07083333333333,,171.07083333333333
539,2018-06-22,171.4625,,171.4625
539,2018-06-23,171.6208333333333,,171.6208333333333
539,2018-06-24,170.90833333333333,,170.90833333333333
539,2018-06-25,171.0958333333333,,171.0958333333333
539,2018-06-26,171.3708333333333,,171.3708333333333
539,2018-06-27,171.3666666666666,,171.3666666666666
539,2018-06-28,170.7125,,170.7125
539,2018-06-29,170.45833333333331,,170.45833333333331
539,2018-06-30,170.4375,,170.4375
539,2018-07-01,170.09166666666667,,170.09166666666667
539,2018-07-02,170.23750000000004,,170.23750000000004
539,2018-07-03,170.33333333333331,,170.33333333333331
539,2018-07-04,170.40833333333336,,170.40833333333336
539,2018-07-05,170.14166666666662,,170.14166666666662
539,2018-07-06,170.3,,170.3
539,2018-07-07,170.625,,170.625
539,2018-07-08,170.95833333333334,,170.95833333333334
539,2018-07-09,170.50833333333333,,170.50833333333333
539,2018-07-10,170.06249999999997,,170.06249999999997
539,2018-07-11,170.11249999999998,,170.11249999999998
539,2018-07-12,170.44583333333333,,170.44583333333333
539,2018-07-13,170.42499999999998,,170.42499999999998
539,2018-07-14,170.0875,,170.0875
539,2018-07-15,170.15833333333333,,170.15833333333333
539,2018-07-16,169.6916666666667,,169.6916666666667
539,2018-07-17,169.82083333333335,,169.82083333333335
539,2018-07-18,170.01250000000002,,170.01250000000002
539,2018-07-19,170.1916666666667,,170.1916666666667
539,2018-07-20,170.25416666666666,,170.25416666666666
539,2018-07-21,170.4083333333333,,170.4083333333333
539,2018-07-22,169.8,,169.8
539,2018-07-23,169.75833333333335,,169.75833333333335
539,2018-07-24,169.51666666666665,,169.51666666666665
539,2018-07-25,169.64583333333331,,169.64583333333331
539,2018-07-26,169.41666666666666,,169.41666666666666
539,2018-07-27,169.5041666666667,,169.5041666666667
539,2018-07-28,169.30416666666665,,169.30416666666665
539,2018-07-29,169.43333333333334,,169.43333333333334
539,2018-07-30,169.83333333333334,,169.83333333333334
539,2018-07-31,169.6875,,169.6875
539,2018-08-01,169.03333333333333,,169.03333333333333
539,2018-08-02,168.96250000000003,,168.96250000000003
539,2018-08-03,169.23333333333332,,169.23333333333332
539,2018-08-04,169.03333333333333,,169.03333333333333
539,2018-08-05,168.67916666666665,,168.67916666666665
539,2018-08-06,168.49166666666665,,168.49166666666665
539,2018-08-07,168.58333333333331,,168.58333333333331
539,2018-08-08,166.50833333333333,,166.50833333333333
539,2018-08-09,169.15,,169.15
539,2018-08-10,169.3708333333333,,169.3708333333333
539,2018-08-11,169.7,,169.7
539,2018-08-12,169.16666666666666,,169.16666666666666
539,2018-08-13,169.42916666666667,,169.42916666666667
539,2018-08-14,169.43333333333334,,169.43333333333334
539,2018-08-15,169.14166666666662,,169.14166666666662
539,2018-08-16,168.91250000000002,,168.91250000000002
539,2018-08-17,168.80833333333334,,168.80833333333334
539,2018-08-18,168.94583333333335,,168.94583333333335
539,2018-08-19,169.44166666666666,,169.44166666666666
539,2018-08-20,169.35833333333332,,169.35833333333332
539,2018-08-21,169.4708333333333,,169.4708333333333
539,2018-08-22,168.99166666666667,,168.99166666666667
539,2018-08-23,169.29166666666669,,169.29166666666669
539,2018-08-24,169.37083333333334,,169.37083333333334
539,2018-08-25,169.40416666666667,,169.40416666666667
539,2018-08-26,169.05833333333334,,169.05833333333334
539,2018-08-27,168.62500000000003,,168.62500000000003
539,2018-08-28,168.22083333333333,,168.22083333333333
539,2018-08-29,168.06666666666663,,168.06666666666663
539,2018-08-30,168.22916666666666,,168.22916666666666
539,2018-08-31,168.9583333333333,,168.9583333333333
539,2018-09-01,169.01666666666665,,169.01666666666665
539,2018-09-02,168.84166666666667,,168.84166666666667
539,2018-09-03,168.2875,,168.2875
539,2018-09-04,168.17916666666665,,168.17916666666665
539,2018-09-05,168.1375,,168.1375
539,2018-09-06,167.99166666666665,,167.99166666666665
539,2018-09-07,168.52083333333334,,168.52083333333334
539,2018-09-08,168.97500000000002,,168.97500000000002
539,2018-09-09,169.57499999999996,,169.57499999999996
539,2018-09-10,169.58333333333334,,169.58333333333334
539,2018-09-11,168.99999999999997,,168.99999999999997
539,2018-09-12,168.55000000000004,,168.55000000000004
539,2018-09-13,168.53333333333336,,168.53333333333336
539,2018-09-14,168.4958333333333,,168.4958333333333
539,2018-09-15,168.4875,,168.4875
539,2018-09-16,168.3125,,168.3125
539,2018-09-17,168.29583333333332,,168.29583333333332
539,2018-09-18,168.01666666666662,,168.01666666666662
539,2018-09-19,168.03333333333333,,168.03333333333333